When you browse on this site, cookies collect data to enhance your experience and personalize the content and advertising you see.
Visit our Privacy Policy to learn more. By continuing to use the site, you agree to this use of cookies and data.
  • en Suisse
  • Liste des pays
  • À 7 jours
  • Température de l'eau
  • Carte météo
  • Widgets météo
  • user-avatar
    Se connecter

    Météo par heure à Treschevo

    Ce jour, 23 Septembre, Lundi

    Heure Température Précipitation Vent Pression Humidité
    00:00 -1°C° 0 mm 6 m/s 735 mmHg 86%
    01:00 0°C° 0 mm 5 m/s 736 mmHg 86%
    02:00 0°C° 0 mm 5 m/s 737 mmHg 87%
    03:00 0°C° 0 mm 4 m/s 737 mmHg 87%
    04:00 0°C° 0 mm 5 m/s 738 mmHg 83%
    05:00 +1°C° 0 mm 5 m/s 738 mmHg 80%
    06:00 +1°C° 0 mm 6 m/s 738 mmHg 77%
    07:00 +1°C° 0 mm 6 m/s 739 mmHg 75%
    08:00 +2°C° 0 mm 6 m/s 739 mmHg 74%
    09:00 +2°C° 0 mm 6 m/s 740 mmHg 72%
    10:00 +3°C° 0 mm 6 m/s 740 mmHg 70%
    11:00 +3°C° 0 mm 6 m/s 740 mmHg 68%
    12:00 +4°C° 0 mm 6 m/s 741 mmHg 66%
    13:00 +5°C° 0 mm 6 m/s 741 mmHg 63%
    14:00 +7°C° 0 mm 6 m/s 741 mmHg 60%
    15:00 +7°C° 0 mm 6 m/s 741 mmHg 57%
    16:00 +7°C° 0 mm 6 m/s 741 mmHg 59%
    17:00 +6°C° 0 mm 5 m/s 741 mmHg 61%
    18:00 +6°C° 0 mm 5 m/s 742 mmHg 62%
    19:00 +4°C° 0 mm 4 m/s 742 mmHg 66%
    20:00 +3°C° 0 mm 4 m/s 742 mmHg 70%
    21:00 +2°C° 0 mm 3 m/s 743 mmHg 73%
    22:00 +1°C° 0 mm 3 m/s 743 mmHg 75%
    23:00 +1°C° 0 mm 3 m/s 743 mmHg 76%

    Demain, 24 Septembre, Mardi

    Heure Température Précipitation Vent Pression Humidité
    00:00 0°C° 0 mm 3 m/s 743 mmHg 77%
    01:00 0°C° 0 mm 3 m/s 743 mmHg 79%
    02:00 -1°C° 0 mm 3 m/s 743 mmHg 80%
    03:00 -1°C° 0 mm 3 m/s 743 mmHg 81%
    04:00 -1°C° 0 mm 3 m/s 743 mmHg 83%
    05:00 -1°C° 0 mm 3 m/s 743 mmHg 85%
    06:00 -2°C° 0 mm 3 m/s 743 mmHg 87%
    07:00 0°C° 0 mm 3 m/s 743 mmHg 83%
    08:00 0°C° 0 mm 4 m/s 743 mmHg 78%
    09:00 +1°C° 0 mm 4 m/s 744 mmHg 74%
    10:00 +3°C° 0 mm 4 m/s 743 mmHg 72%
    11:00 +4°C° 0 mm 4 m/s 743 mmHg 70%
    12:00 +4°C° 0 mm 4 m/s 743 mmHg 69%
    13:00 +4°C° 0.1 mm 4 m/s 743 mmHg 66%
    14:00 +5°C° 0.1 mm 4 m/s 743 mmHg 64%
    15:00 +5°C° 0.1 mm 4 m/s 743 mmHg 62%
    16:00 +5°C° 0.1 mm 3 m/s 743 mmHg 66%
    17:00 +4°C° 0.1 mm 3 m/s 743 mmHg 70%
    18:00 +4°C° 0.1 mm 3 m/s 743 mmHg 74%
    19:00 +4°C° 0 mm 2 m/s 743 mmHg 78%
    20:00 +3°C° 0 mm 2 m/s 743 mmHg 82%
    21:00 +2°C° 0 mm 2 m/s 743 mmHg 86%
    22:00 +1°C° 0 mm 2 m/s 743 mmHg 87%
    23:00 +1°C° 0 mm 2 m/s 743 mmHg 89%

    Après-demain, 25 Septembre, Mercredi

    Heure Température Précipitation Vent Pression Humidité
    00:00 +1°C° 0 mm 2 m/s 744 mmHg 91%
    01:00 +1°C° 0 mm 2 m/s 744 mmHg 92%
    02:00 -1°C° 0 mm 2 m/s 744 mmHg 92%
    03:00 -1°C° 0 mm 2 m/s 744 mmHg 93%
    04:00 -1°C° 0 mm 2 m/s 744 mmHg 93%
    05:00 -2°C° 0 mm 2 m/s 744 mmHg 93%
    06:00 -2°C° 0 mm 2 m/s 744 mmHg 92%
    07:00 +1°C° 0 mm 2 m/s 744 mmHg 88%
    08:00 +2°C° 0 mm 2 m/s 744 mmHg 84%
    09:00 +3°C° 0 mm 2 m/s 744 mmHg 79%
    10:00 +5°C° 0 mm 2 m/s 744 mmHg 75%
    11:00 +6°C° 0 mm 2 m/s 744 mmHg 70%
    12:00 +7°C° 0 mm 3 m/s 744 mmHg 66%
    13:00 +7°C° 0.1 mm 3 m/s 744 mmHg 64%
    14:00 +8°C° 0.1 mm 3 m/s 744 mmHg 62%
    15:00 +8°C° 0.1 mm 3 m/s 744 mmHg 60%
    16:00 +7°C° 0.1 mm 3 m/s 744 mmHg 65%
    17:00 +6°C° 0.1 mm 2 m/s 744 mmHg 69%
    18:00 +7°C° 0.1 mm 1 m/s 743 mmHg 74%
    19:00 +6°C° 0 mm 1 m/s 743 mmHg 76%
    20:00 +6°C° 0 mm 1 m/s 744 mmHg 79%
    21:00 +5°C° 0 mm 1 m/s 744 mmHg 81%
    22:00 +5°C° 0 mm 1 m/s 744 mmHg 82%
    23:00 +5°C° 0 mm 1 m/s 744 mmHg 83%

    26 Septembre, Jeudi

    Heure Température Précipitation Vent Pression Humidité
    00:00 +4°C° 0 mm 2 m/s 744 mmHg 83%
    01:00 +3°C° 0 mm 2 m/s 744 mmHg 85%
    02:00 +4°C° 0 mm 1 m/s 744 mmHg 86%
    03:00 +3°C° 0 mm 1 m/s 744 mmHg 87%
    04:00 +3°C° 0 mm 1 m/s 744 mmHg 87%
    05:00 +3°C° 0 mm 1 m/s 744 mmHg 88%
    06:00 +2°C° 0 mm 1 m/s 744 mmHg 88%
    07:00 +4°C° 0 mm 1 m/s 744 mmHg 83%
    08:00 +5°C° 0 mm 1 m/s 744 mmHg 79%
    09:00 +6°C° 0 mm 1 m/s 744 mmHg 74%
    10:00 +7°C° 0 mm 1 m/s 745 mmHg 69%
    11:00 +8°C° 0 mm 2 m/s 745 mmHg 63%
    12:00 +9°C° 0 mm 2 m/s 745 mmHg 58%
    13:00 +9°C° 0 mm 2 m/s 745 mmHg 56%
    14:00 +10°C° 0 mm 2 m/s 744 mmHg 54%
    15:00 +10°C° 0 mm 2 m/s 744 mmHg 52%
    16:00 +9°C° 0 mm 2 m/s 744 mmHg 57%
    17:00 +8°C° 0 mm 2 m/s 744 mmHg 61%
    18:00 +8°C° 0 mm 1 m/s 744 mmHg 65%
    19:00 +7°C° 0 mm 1 m/s 744 mmHg 68%
    20:00 +6°C° 0 mm 1 m/s 744 mmHg 70%
    21:00 +6°C° 0 mm 1 m/s 744 mmHg 72%
    22:00 +5°C° 0 mm 1 m/s 744 mmHg 73%
    23:00 +5°C° 0 mm 1 m/s 744 mmHg 74%

    27 Septembre, Vendredi

    Heure Température Précipitation Vent Pression Humidité
    00:00 +5°C° 0 mm 1 m/s 744 mmHg 75%
    01:00 +4°C° 0 mm 1 m/s 744 mmHg 76%
    02:00 +4°C° 0 mm 1 m/s 744 mmHg 77%
    03:00 +4°C° 0 mm 1 m/s 744 mmHg 78%
    04:00 +4°C° 0 mm 1 m/s 744 mmHg 79%
    05:00 +4°C° 0 mm 1 m/s 744 mmHg 80%
    06:00 +3°C° 0 mm 1 m/s 744 mmHg 80%
    07:00 +5°C° 0 mm 1 m/s 744 mmHg 75%
    08:00 +5°C° 0 mm 2 m/s 744 mmHg 70%
    09:00 +7°C° 0 mm 2 m/s 744 mmHg 65%
    10:00 +8°C° 0 mm 2 m/s 744 mmHg 62%
    11:00 +9°C° 0 mm 2 m/s 744 mmHg 59%
    12:00 +12°C° 0 mm 2 m/s 744 mmHg 56%
    13:00 +11°C° 0 mm 3 m/s 744 mmHg 56%
    14:00 +12°C° 0 mm 3 m/s 743 mmHg 56%
    15:00 +12°C° 0 mm 3 m/s 743 mmHg 56%
    16:00 +11°C° 0 mm 3 m/s 743 mmHg 61%
    17:00 +10°C° 0 mm 2 m/s 743 mmHg 66%
    18:00 +10°C° 0 mm 1 m/s 743 mmHg 71%
    19:00 +9°C° 0 mm 1 m/s 743 mmHg 71%
    20:00 +8°C° 0 mm 1 m/s 744 mmHg 72%
    21:00 +8°C° 0 mm 1 m/s 744 mmHg 72%
    22:00 +8°C° 0 mm 1 m/s 744 mmHg 72%
    23:00 +6°C° 0 mm 0 m/s 744 mmHg 73%

    28 Septembre, Samedi

    Heure Température Précipitation Vent Pression Humidité
    00:00 +6°C° 0 mm 0 m/s 744 mmHg 73%
    01:00 +6°C° 0 mm 0 m/s 744 mmHg 75%
    02:00 +5°C° 0 mm 0 m/s 745 mmHg 78%
    03:00 +5°C° 0 mm 0 m/s 745 mmHg 80%
    04:00 +4°C° 0 mm 0 m/s 745 mmHg 80%
    05:00 +4°C° 0 mm 0 m/s 745 mmHg 81%
    06:00 +4°C° 0 mm 0 m/s 745 mmHg 82%
    07:00 +5°C° 0 mm 0 m/s 745 mmHg 77%
    08:00 +6°C° 0 mm 0 m/s 745 mmHg 72%
    09:00 +8°C° 0 mm 0 m/s 746 mmHg 68%
    10:00 +9°C° 0 mm 0 m/s 746 mmHg 63%
    11:00 +11°C° 0 mm 0 m/s 746 mmHg 58%
    12:00 +12°C° 0 mm 0 m/s 746 mmHg 54%
    13:00 +13°C° 0 mm 1 m/s 746 mmHg 52%
    14:00 +14°C° 0 mm 1 m/s 746 mmHg 51%
    15:00 +14°C° 0 mm 1 m/s 746 mmHg 49%
    16:00 +13°C° 0 mm 1 m/s 745 mmHg 55%
    17:00 +12°C° 0 mm 1 m/s 745 mmHg 60%
    18:00 +11°C° 0 mm 1 m/s 745 mmHg 66%
    19:00 +11°C° 0 mm 1 m/s 745 mmHg 67%
    20:00 +11°C° 0 mm 1 m/s 745 mmHg 69%
    21:00 +9°C° 0 mm 2 m/s 745 mmHg 70%
    22:00 +10°C° 0 mm 2 m/s 745 mmHg 72%
    23:00 +10°C° 0 mm 2 m/s 745 mmHg 73%
    Voir plus